contact:dominique.lefevre@mio.osupytheas.fr, maurice.libes@osupytheas.fr, didier.mallarino@osupytheas.fr
Project:EMSO http://www.emso-fr.org/EMSO-France
Depth: 2436.0 m
Title:EMSO Ligure Ouest : Data MII capteur MICROCAT
DateTime_Computer,Latitude,Longitude,Temperature,Conductivity,Pressure,DateTime_Instrument
DateTime_Computer,Latitude,Longitude,degC,S m-1,dbar,DateTime_Instrument
2020-09-11T00:01:11Z,42.805,6.029,13.2975,4.59976,2470.087,2020-9-11T02:02:02Z
2020-09-11T00:04:14Z,42.805,6.029,13.2974,4.59973,2470.124,2020-9-11T02:05:05Z
2020-09-11T00:07:17Z,42.805,6.029,13.2976,4.59973,2470.087,2020-9-11T02:08:08Z
2020-09-11T00:10:20Z,42.805,6.029,13.2973,4.59976,2470.063,2020-9-11T02:11:12Z
2020-09-11T00:13:24Z,42.805,6.029,13.2973,4.59973,2470.087,2020-9-11T02:14:16Z
2020-09-11T00:16:26Z,42.805,6.029,13.2974,4.59975,2470.087,2020-9-11T02:17:17Z
2020-09-11T00:19:28Z,42.805,6.029,13.2970,4.59973,2470.063,2020-9-11T02:20:19Z
2020-09-11T00:22:31Z,42.805,6.029,13.2974,4.59973,2470.087,2020-9-11T02:23:22Z
2020-09-11T00:25:34Z,42.805,6.029,13.2972,4.59975,2470.077,2020-9-11T02:26:26Z
2020-09-11T00:28:38Z,42.805,6.029,13.2975,4.59974,2470.1,2020-9-11T02:29:29Z
2020-09-11T00:31:39Z,42.805,6.029,13.2974,4.59973,2470.087,2020-9-11T02:32:31Z
2020-09-11T00:34:43Z,42.805,6.029,13.2975,4.59973,2470.087,2020-9-11T02:35:34Z
2020-09-11T00:37:47Z,42.805,6.029,13.2969,4.59973,2470.087,2020-9-11T02:38:38Z
2020-09-11T00:40:50Z,42.805,6.029,13.2974,4.59973,2470.087,2020-9-11T02:41:42Z
2020-09-11T00:43:51Z,42.805,6.029,13.2971,4.59975,2470.087,2020-9-11T02:44:43Z
2020-09-11T00:46:55Z,42.805,6.029,13.2974,4.59973,2470.087,2020-9-11T02:47:46Z
2020-09-11T00:49:56Z,42.805,6.029,13.2971,4.59973,2470.087,2020-9-11T02:50:48Z
2020-09-11T00:53:01Z,42.805,6.029,13.2972,4.59975,2470.087,2020-9-11T02:53:52Z
2020-09-11T00:56:05Z,42.805,6.029,13.2973,4.59974,2470.087,2020-9-11T02:56:56Z
2020-09-11T00:59:10Z,42.805,6.029,13.2971,4.59973,2470.087,2020-9-11T03:00:01Z
2020-09-11T01:02:12Z,42.805,6.029,13.2974,4.59974,2470.11,2020-9-11T03:03:04Z
2020-09-11T01:05:17Z,42.805,6.029,13.2971,4.59973,2470.063,2020-9-11T03:06:08Z
2020-09-11T01:08:22Z,42.805,6.029,13.2971,4.59974,2470.11,2020-9-11T03:09:13Z
2020-09-11T01:11:25Z,42.805,6.029,13.2975,4.59973,2470.087,2020-9-11T03:12:16Z
2020-09-11T01:14:28Z,42.805,6.029,13.2974,4.59974,2470.087,2020-9-11T03:15:20Z
2020-09-11T01:17:32Z,42.805,6.029,13.2973,4.59973,2470.124,2020-9-11T03:18:23Z
2020-09-11T01:20:35Z,42.805,6.029,13.2971,4.59973,2470.04,2020-9-11T03:21:26Z
2020-09-11T01:23:37Z,42.805,6.029,13.2971,4.59973,2470.1,2020-9-11T03:24:28Z
2020-09-11T01:26:38Z,42.805,6.029,13.2969,4.59973,2470.077,2020-9-11T03:27:29Z
2020-09-11T01:29:41Z,42.805,6.029,13.2974,4.59973,2470.087,2020-9-11T03:30:32Z
2020-09-11T01:32:44Z,42.805,6.029,13.2971,4.59973,2470.087,2020-9-11T03:33:35Z
2020-09-11T01:35:47Z,42.805,6.029,13.2971,4.59973,2470.087,2020-9-11T03:36:38Z
2020-09-11T01:38:49Z,42.805,6.029,13.2971,4.59973,2470.087,2020-9-11T03:39:41Z
2020-09-11T01:41:53Z,42.805,6.029,13.2974,4.59974,2470.04,2020-9-11T03:42:45Z
2020-09-11T01:44:58Z,42.805,6.029,13.2973,4.59973,2470.073,2020-9-11T03:45:49Z
2020-09-11T01:48:02Z,42.805,6.029,13.2971,4.59973,2470.087,2020-9-11T03:48:54Z
2020-09-11T01:51:05Z,42.805,6.029,13.2972,4.59973,2470.11,2020-9-11T03:51:57Z
2020-09-11T01:54:09Z,42.805,6.029,13.2975,4.59973,2470.087,2020-9-11T03:55:01Z
2020-09-11T01:57:13Z,42.805,6.029,13.2973,4.59973,2470.11,2020-9-11T03:58:04Z
2020-09-11T02:00:16Z,42.805,6.029,13.2969,4.59973,2470.053,2020-9-11T04:01:07Z
2020-09-11T02:03:19Z,42.805,6.029,13.2975,4.59973,2470.087,2020-9-11T04:04:11Z
2020-09-11T02:06:22Z,42.805,6.029,13.2972,4.59973,2470.087,2020-9-11T04:07:14Z
2020-09-11T02:09:27Z,42.805,6.029,13.2968,4.59973,2470.11,2020-9-11T04:10:18Z
2020-09-11T02:12:30Z,42.805,6.029,13.2971,4.59973,2470.1,2020-9-11T04:13:21Z
2020-09-11T02:15:31Z,42.805,6.029,13.2974,4.59974,2470.053,2020-9-11T04:16:23Z
2020-09-11T02:18:35Z,42.805,6.029,13.2972,4.59974,2470.1,2020-9-11T04:19:26Z
2020-09-11T02:21:38Z,42.805,6.029,13.2971,4.59973,2470.077,2020-9-11T04:22:29Z
2020-09-11T02:24:40Z,42.805,6.029,13.2972,4.59973,2470.04,2020-9-11T04:25:31Z
2020-09-11T02:27:44Z,42.805,6.029,13.2971,4.59974,2470.1,2020-9-11T04:28:35Z
2020-09-11T02:30:47Z,42.805,6.029,13.2971,4.59973,2470.063,2020-9-11T04:31:39Z
2020-09-11T02:33:52Z,42.805,6.029,13.2974,4.59973,2470.087,2020-9-11T04:34:43Z
2020-09-11T02:36:55Z,42.805,6.029,13.2971,4.59974,2470.087,2020-9-11T04:37:46Z
2020-09-11T02:39:59Z,42.805,6.029,13.2974,4.59973,2470.063,2020-9-11T04:40:51Z
2020-09-11T02:43:03Z,42.805,6.029,13.2971,4.59974,2470.11,2020-9-11T04:43:54Z
2020-09-11T02:46:05Z,42.805,6.029,13.2973,4.59973,2470.053,2020-9-11T04:46:56Z
2020-09-11T02:49:06Z,42.805,6.029,13.2972,4.59973,2470.1,2020-9-11T04:49:57Z
2020-09-11T02:52:11Z,42.805,6.029,13.2973,4.59974,2470.063,2020-9-11T04:53:02Z
2020-09-11T02:55:13Z,42.805,6.029,13.2972,4.59975,2470.063,2020-9-11T04:56:04Z
2020-09-11T02:58:16Z,42.805,6.029,13.2973,4.59973,2470.017,2020-9-11T04:59:08Z
2020-09-11T03:01:18Z,42.805,6.029,13.2966,4.59973,2470.1,2020-9-11T05:02:09Z
2020-09-11T03:04:22Z,42.805,6.029,13.2971,4.59972,2470.063,2020-9-11T05:05:13Z
2020-09-11T03:07:24Z,42.805,6.029,13.2974,4.59974,2470.053,2020-9-11T05:08:15Z
2020-09-11T03:10:26Z,42.805,6.029,13.2975,4.59973,2470.077,2020-9-11T05:11:17Z
2020-09-11T03:13:29Z,42.805,6.029,13.2971,4.59973,2470.04,2020-9-11T05:14:20Z
2020-09-11T03:16:30Z,42.805,6.029,13.2971,4.59973,2470.04,2020-9-11T05:17:22Z
2020-09-11T03:19:32Z,42.805,6.029,13.2968,4.59974,2470.063,2020-9-11T05:20:23Z
2020-09-11T03:22:35Z,42.805,6.029,13.2968,4.59974,2470.063,2020-9-11T05:23:26Z
2020-09-11T03:25:38Z,42.805,6.029,13.2973,4.59973,2470.053,2020-9-11T05:26:30Z
2020-09-11T03:28:42Z,42.805,6.029,13.2973,4.59973,2470.053,2020-9-11T05:29:34Z
2020-09-11T03:31:46Z,42.805,6.029,13.2972,4.59974,2470.063,2020-9-11T05:32:37Z
2020-09-11T03:34:50Z,42.805,6.029,13.2976,4.59973,2470.063,2020-9-11T05:35:42Z
2020-09-11T03:37:55Z,42.805,6.029,13.2973,4.59978,2470.063,2020-9-11T05:38:46Z
2020-09-11T03:40:58Z,42.805,6.029,13.2972,4.59976,2470.03,2020-9-11T05:41:49Z
2020-09-11T03:44:01Z,42.805,6.029,13.2974,4.59975,2470.063,2020-9-11T05:44:53Z
2020-09-11T03:47:04Z,42.805,6.029,13.2969,4.59975,2470.063,2020-9-11T05:47:56Z
2020-09-11T03:50:07Z,42.805,6.029,13.2971,4.59975,2470.063,2020-9-11T05:50:58Z
2020-09-11T03:53:08Z,42.805,6.029,13.2971,4.59975,2470.003,2020-9-11T05:53:59Z
2020-09-11T03:56:11Z,42.805,6.029,13.2972,4.59976,2470.017,2020-9-11T05:57:03Z
2020-09-11T03:59:15Z,42.805,6.029,13.2975,4.59974,2470.063,2020-9-11T06:00:06Z
2020-09-11T04:02:16Z,42.805,6.029,13.2973,4.59974,2470.053,2020-9-11T06:03:07Z
2020-09-11T04:05:19Z,42.805,6.029,13.2971,4.59974,2470.03,2020-9-11T06:06:10Z
2020-09-11T04:08:20Z,42.805,6.029,13.2969,4.59975,2470.017,2020-9-11T06:09:11Z
2020-09-11T04:11:23Z,42.805,6.029,13.2973,4.59974,2470.03,2020-9-11T06:12:15Z
2020-09-11T04:14:25Z,42.805,6.029,13.2972,4.59973,2470.04,2020-9-11T06:15:16Z
2020-09-11T04:17:29Z,42.805,6.029,13.2972,4.59976,2470.04,2020-9-11T06:18:20Z
2020-09-11T04:20:34Z,42.805,6.029,13.2976,4.59974,2470.077,2020-9-11T06:21:25Z
2020-09-11T04:23:36Z,42.805,6.029,13.2976,4.59974,2470.04,2020-9-11T06:24:27Z
2020-09-11T04:26:39Z,42.805,6.029,13.2971,4.59974,2470.017,2020-9-11T06:27:30Z
2020-09-11T04:29:42Z,42.805,6.029,13.2970,4.59973,2470.026,2020-9-11T06:30:34Z
2020-09-11T04:32:47Z,42.805,6.029,13.2972,4.59973,2470.077,2020-9-11T06:33:38Z
2020-09-11T04:35:49Z,42.805,6.029,13.2971,4.59973,2470.063,2020-9-11T06:36:40Z
2020-09-11T04:38:51Z,42.805,6.029,13.2972,4.59974,2470.03,2020-9-11T06:39:42Z
2020-09-11T04:41:54Z,42.805,6.029,13.2968,4.59973,2470.04,2020-9-11T06:42:46Z
2020-09-11T04:44:56Z,42.805,6.029,13.2972,4.59974,2470.04,2020-9-11T06:45:47Z
2020-09-11T04:47:59Z,42.805,6.029,13.2975,4.59974,2470.04,2020-9-11T06:48:50Z
2020-09-11T04:51:02Z,42.805,6.029,13.2972,4.59973,2470.063,2020-9-11T06:51:54Z
2020-09-11T04:54:04Z,42.805,6.029,13.2973,4.59975,2470.053,2020-9-11T06:54:55Z
2020-09-11T04:57:05Z,42.805,6.029,13.2971,4.59975,2470.017,2020-9-11T06:57:57Z
2020-09-11T05:00:08Z,42.805,6.029,13.2968,4.59976,2470.04,2020-9-11T07:00:59Z
2020-09-11T05:03:11Z,42.805,6.029,13.2976,4.59975,2470.053,2020-9-11T07:04:03Z
2020-09-11T05:06:16Z,42.805,6.029,13.2971,4.59975,2470.03,2020-9-11T07:07:07Z
2020-09-11T05:09:18Z,42.805,6.029,13.2973,4.59973,2470.03,2020-9-11T07:10:10Z
2020-09-11T05:12:22Z,42.805,6.029,13.2974,4.59975,2470.017,2020-9-11T07:13:13Z
2020-09-11T05:15:26Z,42.805,6.029,13.2974,4.59974,2470.053,2020-9-11T07:16:18Z
2020-09-11T05:18:30Z,42.805,6.029,13.2974,4.59977,2469.979,2020-9-11T07:19:21Z
2020-09-11T05:21:34Z,42.805,6.029,13.2970,4.59974,2470.017,2020-9-11T07:22:25Z
2020-09-11T05:24:35Z,42.805,6.029,13.2972,4.59976,2470.026,2020-9-11T07:25:26Z
2020-09-11T05:27:38Z,42.805,6.029,13.2967,4.59976,2470.017,2020-9-11T07:28:30Z
2020-09-11T05:30:43Z,42.805,6.029,13.2974,4.59975,2470.017,2020-9-11T07:31:35Z
2020-09-11T05:33:46Z,42.805,6.029,13.2971,4.59975,2470.007,2020-9-11T07:34:37Z
2020-09-11T05:36:48Z,42.805,6.029,13.2968,4.59975,2470.03,2020-9-11T07:37:40Z
2020-09-11T05:39:50Z,42.805,6.029,13.2976,4.59975,2470.017,2020-9-11T07:40:41Z
2020-09-11T05:42:53Z,42.805,6.029,13.2972,4.59975,2470.04,2020-9-11T07:43:44Z
2020-09-11T05:45:56Z,42.805,6.029,13.2972,4.59976,2469.97,2020-9-11T07:46:47Z
2020-09-11T05:48:57Z,42.805,6.029,13.2971,4.59974,2470.04,2020-9-11T07:49:49Z
2020-09-11T05:51:59Z,42.805,6.029,13.2972,4.59976,2470.04,2020-9-11T07:52:50Z
2020-09-11T05:55:02Z,42.805,6.029,13.2973,4.59973,2469.979,2020-9-11T07:55:53Z
2020-09-11T05:58:05Z,42.805,6.029,13.2971,4.59976,2469.993,2020-9-11T07:58:57Z
2020-09-11T06:01:09Z,42.805,6.029,13.2974,4.59976,2470.03,2020-9-11T08:02:00Z
2020-09-11T06:04:12Z,42.805,6.029,13.2970,4.59976,2470.017,2020-9-11T08:05:03Z
2020-09-11T06:07:14Z,42.805,6.029,13.2971,4.59976,2470.017,2020-9-11T08:08:05Z
2020-09-11T06:10:16Z,42.805,6.029,13.2970,4.59975,2470.03,2020-9-11T08:11:07Z
2020-09-11T06:13:18Z,42.805,6.029,13.2972,4.59976,2470.03,2020-9-11T08:14:09Z
2020-09-11T06:16:19Z,42.805,6.029,13.2972,4.59975,2470.017,2020-9-11T08:17:11Z
2020-09-11T06:19:23Z,42.805,6.029,13.2975,4.59976,2470.053,2020-9-11T08:20:15Z
2020-09-11T06:22:25Z,42.805,6.029,13.2974,4.59975,2470.017,2020-9-11T08:23:16Z
2020-09-11T06:25:28Z,42.805,6.029,13.2972,4.59976,2470.017,2020-9-11T08:26:19Z
2020-09-11T06:28:31Z,42.805,6.029,13.2973,4.59975,2470.03,2020-9-11T08:29:23Z
2020-09-11T06:31:36Z,42.805,6.029,13.2969,4.59973,2470.017,2020-9-11T08:32:27Z
2020-09-11T06:34:40Z,42.805,6.029,13.2973,4.59974,2469.97,2020-9-11T08:35:31Z
2020-09-11T06:37:42Z,42.805,6.029,13.2971,4.59974,2470.007,2020-9-11T08:38:33Z
2020-09-11T06:40:47Z,42.805,6.029,13.2971,4.59976,2470.03,2020-9-11T08:41:38Z
2020-09-11T06:43:49Z,42.805,6.029,13.2975,4.59976,2469.993,2020-9-11T08:44:40Z
2020-09-11T06:46:51Z,42.805,6.029,13.2971,4.59975,2470.007,2020-9-11T08:47:42Z
2020-09-11T06:49:55Z,42.805,6.029,13.2972,4.59975,2469.97,2020-9-11T08:50:46Z
2020-09-11T06:52:56Z,42.805,6.029,13.2974,4.59975,2469.993,2020-9-11T08:53:48Z
2020-09-11T06:56:00Z,42.805,6.029,13.2971,4.59973,2470.017,2020-9-11T08:56:52Z
2020-09-11T06:59:03Z,42.805,6.029,13.2974,4.59973,2469.984,2020-9-11T08:59:54Z
2020-09-11T07:02:06Z,42.805,6.029,13.2971,4.59974,2469.979,2020-9-11T09:02:57Z
2020-09-11T07:05:10Z,42.805,6.029,13.2969,4.59975,2469.993,2020-9-11T09:06:01Z
2020-09-11T07:08:13Z,42.805,6.029,13.2971,4.59973,2469.993,2020-9-11T09:09:04Z
2020-09-11T07:11:16Z,42.805,6.029,13.2974,4.59974,2470.017,2020-9-11T09:12:08Z
2020-09-11T07:14:19Z,42.805,6.029,13.2971,4.59976,2469.984,2020-9-11T09:15:11Z
2020-09-11T07:17:23Z,42.805,6.029,13.2976,4.59976,2470.017,2020-9-11T09:18:14Z
2020-09-11T07:20:26Z,42.805,6.029,13.2974,4.59975,2470.007,2020-9-11T09:21:17Z
2020-09-11T07:23:29Z,42.805,6.029,13.2974,4.59975,2469.993,2020-9-11T09:24:21Z
2020-09-11T07:26:33Z,42.805,6.029,13.2974,4.59974,2470.03,2020-9-11T09:27:24Z
2020-09-11T07:29:36Z,42.805,6.029,13.2971,4.59975,2470.017,2020-9-11T09:30:28Z
2020-09-11T07:32:40Z,42.805,6.029,13.2975,4.59975,2469.97,2020-9-11T09:33:31Z
2020-09-11T07:35:43Z,42.805,6.029,13.2974,4.59976,2469.993,2020-9-11T09:36:34Z
2020-09-11T07:38:46Z,42.805,6.029,13.2972,4.59975,2470.017,2020-9-11T09:39:38Z
2020-09-11T07:41:50Z,42.805,6.029,13.2971,4.59973,2470.04,2020-9-11T09:42:42Z
2020-09-11T07:44:52Z,42.805,6.029,13.2972,4.59975,2470.017,2020-9-11T09:45:43Z
2020-09-11T07:47:56Z,42.805,6.029,13.2974,4.59975,2470.007,2020-9-11T09:48:48Z
2020-09-11T07:50:58Z,42.805,6.029,13.2977,4.59975,2470.007,2020-9-11T09:51:49Z
2020-09-11T07:54:00Z,42.805,6.029,13.2972,4.59977,2469.993,2020-9-11T09:54:51Z
2020-09-11T07:57:02Z,42.805,6.029,13.2973,4.59976,2470.017,2020-9-11T09:57:53Z
2020-09-11T08:00:05Z,42.805,6.029,13.2974,4.59975,2469.993,2020-9-11T10:00:56Z
2020-09-11T08:03:08Z,42.805,6.029,13.2971,4.59976,2470.007,2020-9-11T10:03:59Z
2020-09-11T08:06:12Z,42.805,6.029,13.2973,4.59975,2470.04,2020-9-11T10:07:03Z
2020-09-11T08:09:16Z,42.805,6.029,13.2974,4.59976,2470.017,2020-9-11T10:10:07Z
2020-09-11T08:12:17Z,42.805,6.029,13.2971,4.59975,2469.993,2020-9-11T10:13:08Z
2020-09-11T08:15:21Z,42.805,6.029,13.2971,4.59975,2470.017,2020-9-11T10:16:12Z
2020-09-11T08:18:24Z,42.805,6.029,13.2971,4.59976,2470.053,2020-9-11T10:19:16Z
2020-09-11T08:21:29Z,42.805,6.029,13.2976,4.59976,2470.017,2020-9-11T10:22:20Z
2020-09-11T08:24:34Z,42.805,6.029,13.2974,4.59976,2470.03,2020-9-11T10:25:25Z
2020-09-11T08:27:37Z,42.805,6.029,13.2974,4.59976,2470.04,2020-9-11T10:28:28Z
2020-09-11T08:30:39Z,42.805,6.029,13.2972,4.59976,2469.993,2020-9-11T10:31:30Z
2020-09-11T08:33:41Z,42.805,6.029,13.2972,4.59975,2470.017,2020-9-11T10:34:33Z
2020-09-11T08:36:45Z,42.805,6.029,13.2978,4.59976,2470.03,2020-9-11T10:37:37Z
2020-09-11T08:39:48Z,42.805,6.029,13.2976,4.59977,2470.053,2020-9-11T10:40:40Z
2020-09-11T08:42:53Z,42.805,6.029,13.2971,4.59976,2470.03,2020-9-11T10:43:44Z
2020-09-11T08:45:57Z,42.805,6.029,13.2972,4.59975,2470.03,2020-9-11T10:46:48Z
2020-09-11T08:48:59Z,42.805,6.029,13.2974,4.59974,2470.053,2020-9-11T10:49:50Z
2020-09-11T08:52:01Z,42.805,6.029,13.2974,4.59975,2470.04,2020-9-11T10:52:53Z
2020-09-11T08:55:06Z,42.805,6.029,13.2973,4.59976,2470.04,2020-9-11T10:55:57Z
2020-09-11T08:58:09Z,42.805,6.029,13.2976,4.59974,2470.03,2020-9-11T10:59:01Z
2020-09-11T09:01:13Z,42.805,6.029,13.2972,4.59974,2470.017,2020-9-11T11:02:04Z
2020-09-11T09:04:14Z,42.805,6.029,13.2974,4.59976,2470.053,2020-9-11T11:05:05Z
2020-09-11T09:07:16Z,42.805,6.029,13.2973,4.59976,2470.017,2020-9-11T11:08:07Z
2020-09-11T09:10:18Z,42.805,6.029,13.2974,4.59974,2470.03,2020-9-11T11:11:10Z
2020-09-11T09:13:23Z,42.805,6.029,13.2971,4.59976,2470.063,2020-9-11T11:14:14Z
2020-09-11T09:16:28Z,42.805,6.029,13.2972,4.59976,2470.017,2020-9-11T11:17:19Z
2020-09-11T09:19:30Z,42.805,6.029,13.2973,4.59976,2470.017,2020-9-11T11:20:21Z
2020-09-11T09:22:33Z,42.805,6.029,13.2975,4.59976,2470.03,2020-9-11T11:23:24Z
2020-09-11T09:25:35Z,42.805,6.029,13.2969,4.59974,2470.063,2020-9-11T11:26:26Z
2020-09-11T09:28:37Z,42.805,6.029,13.2975,4.59976,2470.017,2020-9-11T11:29:28Z
2020-09-11T09:31:41Z,42.805,6.029,13.2974,4.59975,2470.017,2020-9-11T11:32:32Z
2020-09-11T09:34:45Z,42.805,6.029,13.2970,4.59976,2470.017,2020-9-11T11:35:36Z
2020-09-11T09:37:48Z,42.805,6.029,13.2972,4.59976,2470.063,2020-9-11T11:38:39Z
2020-09-11T09:40:50Z,42.805,6.029,13.2973,4.59974,2470.053,2020-9-11T11:41:41Z
2020-09-11T09:43:53Z,42.805,6.029,13.2976,4.59976,2470.063,2020-9-11T11:44:45Z
2020-09-11T09:46:57Z,42.805,6.029,13.2974,4.59975,2470.077,2020-9-11T11:47:48Z
2020-09-11T09:50:00Z,42.805,6.029,13.2974,4.59976,2470.04,2020-9-11T11:50:51Z
2020-09-11T09:53:04Z,42.805,6.029,13.2975,4.59975,2470.04,2020-9-11T11:53:55Z
2020-09-11T09:56:08Z,42.805,6.029,13.2974,4.59977,2470.077,2020-9-11T11:56:59Z
2020-09-11T09:59:12Z,42.805,6.029,13.2971,4.59976,2470.053,2020-9-11T12:00:03Z
2020-09-11T10:02:16Z,42.805,6.029,13.2974,4.59976,2470.049,2020-9-11T12:03:08Z
2020-09-11T10:05:20Z,42.805,6.029,13.2972,4.59976,2470.077,2020-9-11T12:06:11Z
2020-09-11T10:08:24Z,42.805,6.029,13.2976,4.59976,2470.077,2020-9-11T12:09:16Z
2020-09-11T10:11:25Z,42.805,6.029,13.2975,4.59976,2470.063,2020-9-11T12:12:17Z
2020-09-11T10:14:27Z,42.805,6.029,13.2970,4.59976,2470.063,2020-9-11T12:15:19Z
2020-09-11T10:17:28Z,42.805,6.029,13.2975,4.59976,2470.04,2020-9-11T12:18:20Z
2020-09-11T10:20:33Z,42.805,6.029,13.2971,4.59976,2470.04,2020-9-11T12:21:24Z
2020-09-11T10:23:37Z,42.805,6.029,13.2974,4.59976,2470.063,2020-9-11T12:24:29Z
2020-09-11T10:26:40Z,42.805,6.029,13.2976,4.59976,2470.087,2020-9-11T12:27:32Z
2020-09-11T10:29:45Z,42.805,6.029,13.2973,4.59978,2470.063,2020-9-11T12:30:36Z
2020-09-11T10:32:48Z,42.805,6.029,13.2975,4.59978,2470.1,2020-9-11T12:33:39Z
2020-09-11T10:35:51Z,42.805,6.029,13.2975,4.59976,2470.063,2020-9-11T12:36:42Z
2020-09-11T10:38:53Z,42.805,6.029,13.2972,4.59976,2470.053,2020-9-11T12:39:44Z
2020-09-11T10:41:57Z,42.805,6.029,13.2972,4.59977,2470.077,2020-9-11T12:42:48Z
2020-09-11T10:45:02Z,42.805,6.029,13.2975,4.59977,2470.1,2020-9-11T12:45:53Z
2020-09-11T10:48:05Z,42.805,6.029,13.2976,4.59976,2470.063,2020-9-11T12:48:56Z
2020-09-11T10:51:09Z,42.805,6.029,13.2974,4.59976,2470.04,2020-9-11T12:52:00Z
2020-09-11T10:54:11Z,42.805,6.029,13.2976,4.59977,2470.1,2020-9-11T12:55:02Z
2020-09-11T10:57:15Z,42.805,6.029,13.2975,4.59976,2470.04,2020-9-11T12:58:07Z
2020-09-11T11:00:16Z,42.805,6.029,13.2973,4.59978,2470.063,2020-9-11T13:01:08Z
2020-09-11T11:03:19Z,42.805,6.029,13.2976,4.59976,2470.087,2020-9-11T13:04:10Z
2020-09-11T11:06:22Z,42.805,6.029,13.2971,4.59976,2470.04,2020-9-11T13:07:13Z
2020-09-11T11:09:25Z,42.805,6.029,13.2971,4.59978,2470.077,2020-9-11T13:10:17Z
2020-09-11T11:12:29Z,42.805,6.029,13.2974,4.59978,2470.087,2020-9-11T13:13:21Z
2020-09-11T11:15:31Z,42.805,6.029,13.2973,4.59976,2470.087,2020-9-11T13:16:22Z
2020-09-11T11:18:33Z,42.805,6.029,13.2975,4.59977,2470.077,2020-9-11T13:19:24Z
2020-09-11T11:21:36Z,42.805,6.029,13.2971,4.59978,2470.063,2020-9-11T13:22:27Z
2020-09-11T11:24:40Z,42.805,6.029,13.2973,4.59978,2470.087,2020-9-11T13:25:31Z
2020-09-11T11:27:43Z,42.805,6.029,13.2978,4.59978,2470.087,2020-9-11T13:28:34Z
2020-09-11T11:30:46Z,42.805,6.029,13.2974,4.59978,2470.087,2020-9-11T13:31:37Z
2020-09-11T11:33:50Z,42.805,6.029,13.2976,4.59977,2470.063,2020-9-11T13:34:41Z
2020-09-11T11:36:52Z,42.805,6.029,13.2974,4.59978,2470.11,2020-9-11T13:37:43Z
2020-09-11T11:39:56Z,42.805,6.029,13.2974,4.59976,2470.11,2020-9-11T13:40:48Z
2020-09-11T11:42:59Z,42.805,6.029,13.2978,4.59978,2470.063,2020-9-11T13:43:51Z
2020-09-11T11:46:04Z,42.805,6.029,13.2976,4.59978,2470.11,2020-9-11T13:46:56Z
2020-09-11T11:49:06Z,42.805,6.029,13.2978,4.59976,2470.124,2020-9-11T13:49:58Z
2020-09-11T11:52:11Z,42.805,6.029,13.2976,4.59976,2470.124,2020-9-11T13:53:02Z
2020-09-11T11:55:12Z,42.805,6.029,13.2976,4.59978,2470.087,2020-9-11T13:56:03Z
2020-09-11T11:58:15Z,42.805,6.029,13.2978,4.59978,2470.077,2020-9-11T13:59:06Z
2020-09-11T12:01:20Z,42.805,6.029,13.2975,4.59978,2470.11,2020-9-11T14:02:11Z
2020-09-11T12:04:21Z,42.805,6.029,13.2976,4.59977,2470.124,2020-9-11T14:05:12Z
2020-09-11T12:07:23Z,42.805,6.029,13.2973,4.59978,2470.087,2020-9-11T14:08:14Z
2020-09-11T12:10:24Z,42.805,6.029,13.2974,4.59977,2470.087,2020-9-11T14:11:15Z
2020-09-11T12:13:25Z,42.805,6.029,13.2976,4.59977,2470.11,2020-9-11T14:14:16Z
2020-09-11T12:16:26Z,42.805,6.029,13.2976,4.59978,2470.11,2020-9-11T14:17:18Z
2020-09-11T12:19:29Z,42.805,6.029,13.2974,4.59978,2470.11,2020-9-11T14:20:21Z
2020-09-11T12:22:31Z,42.805,6.029,13.2974,4.59979,2470.11,2020-9-11T14:23:22Z
2020-09-11T12:25:33Z,42.805,6.029,13.2979,4.59978,2470.087,2020-9-11T14:26:24Z
2020-09-11T12:28:34Z,42.805,6.029,13.2977,4.59977,2470.11,2020-9-11T14:29:25Z
2020-09-11T12:31:39Z,42.805,6.029,13.2975,4.59978,2470.1,2020-9-11T14:32:30Z
2020-09-11T12:34:42Z,42.805,6.029,13.2976,4.59978,2470.1,2020-9-11T14:35:33Z
2020-09-11T12:37:44Z,42.805,6.029,13.2974,4.59980,2470.11,2020-9-11T14:38:35Z
2020-09-11T12:40:48Z,42.805,6.029,13.2974,4.59978,2470.096,2020-9-11T14:41:40Z
2020-09-11T12:43:53Z,42.805,6.029,13.2974,4.59979,2470.11,2020-9-11T14:44:44Z
2020-09-11T12:46:56Z,42.805,6.029,13.2976,4.59978,2470.087,2020-9-11T14:47:47Z
2020-09-11T12:49:57Z,42.805,6.029,13.2976,4.59978,2470.124,2020-9-11T14:50:49Z
2020-09-11T12:52:59Z,42.805,6.029,13.2972,4.59978,2470.133,2020-9-11T14:53:50Z
2020-09-11T12:56:02Z,42.805,6.029,13.2976,4.59976,2470.11,2020-9-11T14:56:53Z
2020-09-11T12:59:05Z,42.805,6.029,13.2979,4.59976,2470.11,2020-9-11T14:59:56Z
2020-09-11T13:02:08Z,42.805,6.029,13.2979,4.59980,2470.147,2020-9-11T15:02:59Z
2020-09-11T13:05:11Z,42.805,6.029,13.2979,4.59978,2470.124,2020-9-11T15:06:03Z
2020-09-11T13:08:15Z,42.805,6.029,13.2977,4.59978,2470.1,2020-9-11T15:09:06Z
2020-09-11T13:11:19Z,42.805,6.029,13.2976,4.59977,2470.11,2020-9-11T15:12:10Z
2020-09-11T13:14:24Z,42.805,6.029,13.2973,4.59978,2470.087,2020-9-11T15:15:15Z
2020-09-11T13:17:25Z,42.805,6.029,13.2979,4.59976,2470.147,2020-9-11T15:18:16Z
2020-09-11T13:20:26Z,42.805,6.029,13.2974,4.59978,2470.133,2020-9-11T15:21:18Z
2020-09-11T13:23:28Z,42.805,6.029,13.2971,4.59978,2470.087,2020-9-11T15:24:19Z
2020-09-11T13:26:31Z,42.805,6.029,13.2976,4.59979,2470.11,2020-9-11T15:27:23Z
2020-09-11T13:29:34Z,42.805,6.029,13.2977,4.59977,2470.133,2020-9-11T15:30:25Z
2020-09-11T13:32:36Z,42.805,6.029,13.2977,4.59978,2470.133,2020-9-11T15:33:27Z
2020-09-11T13:35:39Z,42.805,6.029,13.2976,4.59978,2470.11,2020-9-11T15:36:31Z
2020-09-11T13:38:42Z,42.805,6.029,13.2977,4.59979,2470.11,2020-9-11T15:39:34Z
2020-09-11T13:41:46Z,42.805,6.029,13.2976,4.59978,2470.1,2020-9-11T15:42:37Z
2020-09-11T13:44:48Z,42.805,6.029,13.2976,4.59978,2470.1,2020-9-11T15:45:40Z
2020-09-11T13:47:52Z,42.805,6.029,13.2973,4.59976,2470.171,2020-9-11T15:48:43Z
2020-09-11T13:50:55Z,42.805,6.029,13.2979,4.59979,2470.063,2020-9-11T15:51:47Z
2020-09-11T13:53:59Z,42.805,6.029,13.2977,4.59978,2470.11,2020-9-11T15:54:50Z
2020-09-11T13:57:02Z,42.805,6.029,13.2974,4.59978,2470.11,2020-9-11T15:57:54Z
2020-09-11T14:00:06Z,42.805,6.029,13.2974,4.59978,2470.124,2020-9-11T16:00:57Z
2020-09-11T14:03:09Z,42.805,6.029,13.2974,4.59978,2470.1,2020-9-11T16:04:01Z
2020-09-11T14:06:14Z,42.805,6.029,13.2973,4.59979,2470.133,2020-9-11T16:07:05Z
2020-09-11T14:09:18Z,42.805,6.029,13.2974,4.59978,2470.133,2020-9-11T16:10:09Z
2020-09-11T14:12:23Z,42.805,6.029,13.2975,4.59978,2470.133,2020-9-11T16:13:14Z
2020-09-11T14:15:24Z,42.805,6.029,13.2976,4.59978,2470.124,2020-9-11T16:16:16Z
2020-09-11T14:18:29Z,42.805,6.029,13.2976,4.59978,2470.11,2020-9-11T16:19:20Z
2020-09-11T14:21:31Z,42.805,6.029,13.2977,4.59978,2470.087,2020-9-11T16:22:22Z
2020-09-11T14:24:32Z,42.805,6.029,13.2974,4.59977,2470.087,2020-9-11T16:25:24Z
2020-09-11T14:27:37Z,42.805,6.029,13.2976,4.59979,2470.11,2020-9-11T16:28:28Z
2020-09-11T14:30:39Z,42.805,6.029,13.2974,4.59978,2470.147,2020-9-11T16:31:30Z
2020-09-11T14:33:42Z,42.805,6.029,13.2978,4.59976,2470.1,2020-9-11T16:34:34Z
2020-09-11T14:36:46Z,42.805,6.029,13.2977,4.59977,2470.133,2020-9-11T16:37:37Z
2020-09-11T14:39:48Z,42.805,6.029,13.2976,4.59978,2470.096,2020-9-11T16:40:39Z
2020-09-11T14:42:51Z,42.805,6.029,13.2976,4.59979,2470.11,2020-9-11T16:43:42Z
2020-09-11T14:45:55Z,42.805,6.029,13.2975,4.59976,2470.124,2020-9-11T16:46:46Z
2020-09-11T14:48:58Z,42.805,6.029,13.2976,4.59976,2470.133,2020-9-11T16:49:49Z
2020-09-11T14:51:59Z,42.805,6.029,13.2972,4.59976,2470.147,2020-9-11T16:52:51Z
2020-09-11T14:55:04Z,42.805,6.029,13.2975,4.59975,2470.133,2020-9-11T16:55:55Z
2020-09-11T14:58:06Z,42.805,6.029,13.2974,4.59976,2470.11,2020-9-11T16:58:57Z
2020-09-11T15:01:09Z,42.805,6.029,13.2975,4.59975,2470.133,2020-9-11T17:02:01Z
2020-09-11T15:04:14Z,42.805,6.029,13.2974,4.59975,2470.156,2020-9-11T17:05:06Z
2020-09-11T15:07:18Z,42.805,6.029,13.2975,4.59974,2470.156,2020-9-11T17:08:10Z
2020-09-11T15:10:21Z,42.805,6.029,13.2971,4.59975,2470.156,2020-9-11T17:11:13Z
2020-09-11T15:13:25Z,42.805,6.029,13.2973,4.59975,2470.133,2020-9-11T17:14:16Z